sat.trackr.live / text

‹ back to catalog

STARLINK-34029

NORAD 63805 · 2025-092B

PAYLOAD ACTIVE UNKNOWN

§ Identity

Operator
Country
US
Launch date
2025-05-04
Launch site
AFETR
Launch vehicle
Mass (kg)
RCS (m²)

Purposes: comms

External: N2YO · Heavens-Above · Gunter

§ Orbital elements

Epoch: 2026-05-25T03:31:14.524032Z

Period
94.27 min
Inclination
42.9992°
Eccentricity
0.0000424
Mean motion
15.27593183 rev/d
Perigee alt
482.7 km
Apogee alt
483.3 km
Semi-major
6,861.1 km
B*
4.7501e-4
RAAN
101.1095°
Arg perigee
242.5013°
Mean anomaly
117.5796°
Rev number
6,030

§ Raw data

STARLINK-340291 63805U 25092B   26145.14669588  .00012837  00000+0  47501-3 0  99952 63805  42.9992 101.1095 0000424 242.5013 117.5796 15.27593183 60302

JSON: /api/v1/satellites/63805 · /tle

For live sub-satellite position, see the globe view (requires WebGL).

§ Visibility from observer

Set your observer location to see the next 7 days of passes ≥ 10°. The values pass through the URL so the page stays shareable.

No JS? Fill the form by hand. The geolocation button needs JavaScript.